Wind_Speed
44 42 42 40 38 38 37 37 37 36 34 33 33 34 35 34 32 31 30 31 32 35 35 34 39 49 55 53 51 50 53 58 58 54 51 51 51 51 50 49 49 47 46 45 44 42 40 38 36 35 34 33 31 29 28 26 25 23 20 18 18 17 15 14 13 13 13 12 12 12 12 11 11 10 10 10 10 9 8 8 8 7 6 6 5 4 4 4
43 41 40 39 37 38 37 37 37 36 35 34 34 34 35 34 32 32 31 31 31 33 33 32 33 41 52 54 52 53 58 61 59 55 53 52 52 51 50 49 49 47 46 45 44 42 41 39 37 36 34 32 30 29 28 26 24 22 20 18 17 17 16 14 13 13 13 13 13 13 13 12 11 11 10 10 10 9 8 8 7 7 6 6 5 4 4 4
42 40 39 38 37 38 38 38 38 36 35 34 34 34 35 34 32 32 31 30 31 31 31 30 31 37 47 53 54 58 62 63 59 55 54 53 52 51 50 49 48 47 46 45 43 42 41 40 38 36 34 32 30 29 27 25 23 21 20 18 17 17 15 14 13 13 13 14 14 14 14 13 12 11 11 10 10 9 9 8 7 7 6 6 5 4 3 3
42 40 38 38 38 38 38 38 38 36 35 35 34 34 35 34 32 33 32 31 31 30 30 30 31 36 43 51 56 62 64 63 58 55 54 53 53 52 51 50 48 48 46 45 43 41 40 39 38 36 35 33 31 29 27 25 23 22 21 19 18 17 16 15 15 14 14 14 14 14 14 14 13 12 11 10 10 9 9 8 8 7 6 6 5 4 3 2
41 39 38 38 38 38 38 38 38 36 36 35 34 34 35 34 33 34 33 32 31 30 30 29 31 35 43 52 59 64 65 61 57 55 55 54 53 52 51 50 49 48 46 45 43 42 40 39 38 36 34 32 30 29 27 25 24 22 22 21 19 18 17 17 16 14 14 14 15 14 14 14 13 13 12 11 10 9 9 8 8 7 7 6 5 4 3 2
41 40 39 39 39 38 39 38 37 36 36 35 34 34 35 34 34 35 34 32 31 30 29 29 31 35 45 56 62 64 63 59 57 56 54 54 53 52 51 51 50 48 47 45 44 42 41 39 37 35 33 31 29 28 26 25 24 23 22 21 20 19 18 18 17 15 14 14 15 15 15 14 14 13 12 11 10 10 9 9 8 8 8 7 6 5 4 3
41 40 39 39 39 39 39 38 37 36 36 35 34 34 35 35 35 35 34 32 31 30 29 30 33 38 50 61 64 64 62 57 57 56 54 54 53 53 52 51 50 49 47 46 44 42 41 39 37 35 33 31 29 28 26 25 24 24 23 22 21 20 19 18 17 15 15 15 15 15 15 15 14 13 13 12 11 10 10 10 9 8 8 8 7 6 5 4
42 41 40 40 40 39 38 37 37 36 36 35 34 34 35 36 36 36 34 33 31 30 30 33 37 44 56 64 65 64 60 55 57 55 54 54 53 53 52 52 51 49 48 46 44 43 41 39 37 35 33 31 30 28 26 25 24 24 23 22 21 21 19 18 17 16 16 16 16 15 15 15 15 14 13 13 12 11 10 10 10 9 8 8 7 7 6 6
43 41 41 41 40 40 38 37 36 36 36 35 34 35 36 37 37 36 34 33 32 31 33 37 42 51 62 66 65 63 57 54 56 55 54 54 54 54 53 52 52 50 48 46 44 42 41 39 37 35 34 32 31 29 27 26 25 25 24 23 21 20 20 19 18 17 17 17 16 16 16 16 16 15 14 13 12 12 11 10 10 9 9 8 8 7 7 6
43 43 42 42 41 40 39 37 36 36 36 35 34 35 37 39 38 36 34 33 32 32 37 44 49 58 65 65 63 59 55 55 55 54 53 54 55 54 54 53 52 50 48 46 44 42 40 39 37 36 35 33 32 30 28 27 27 26 25 23 22 21 20 19 18 18 17 17 16 16 16 16 15 14 14 13 13 12 12 11 11 10 10 9 8 7 6 5
44 44 43 42 41 40 39 38 36 36 36 36 34 36 39 40 39 36 34 34 33 35 43 50 56 63 65 63 59 52 53 55 53 53 53 54 55 54 54 54 53 51 49 47 45 43 41 40 38 36 35 33 32 31 29 28 28 28 25 24 23 22 21 20 19 18 17 17 17 16 16 16 14 14 14 13 13 13 12 12 12 11 11 10 8 7 6 4
45 45 44 43 42 41 39 38 37 36 36 36 35 37 41 41 39 37 36 35 36 41 49 55 60 64 63 61 54 49 53 53 51 52 52 54 55 54 55 54 53 51 49 48 46 44 42 41 39 37 35 33 31 31 30 30 29 28 26 25 25 23 22 20 19 18 18 18 17 17 16 16 15 15 15 14 14 13 13 13 13 12 11 10 8 7 6 5
46 46 45 43 42 42 40 38 37 37 37 36 36 39 42 42 40 38 38 38 40 47 54 58 61 62 60 56 50 48 52 52 51 52 52 53 54 54 54 54 53 52 50 49 47 45 44 41 39 37 36 34 32 31 30 30 29 28 27 25 24 23 22 21 20 20 19 19 18 17 17 17 16 16 16 16 16 15 14 14 14 13 12 10 9 8 6 5
47 47 45 44 43 42 41 39 38 38 38 38 38 41 44 43 41 41 42 41 45 52 55 57 57 58 57 51 47 48 49 50 51 51 51 52 53 54 54 54 53 52 51 49 47 46 44 42 40 38 37 35 33 32 31 30 29 28 27 26 24 23 22 22 21 21 20 19 19 18 18 18 17 17 17 18 18 17 16 16 15 14 13 12 11 9 8 7
48 47 45 44 44 43 42 40 39 39 40 39 40 43 45 44 43 44 45 44 48 54 54 53 53 54 54 48 47 48 47 49 49 50 51 51 51 53 54 54 53 52 51 50 48 46 44 42 41 39 38 36 34 33 31 30 29 29 28 26 24 23 23 23 22 21 20 20 20 19 19 19 19 19 19 19 19 18 18 17 17 16 15 14 13 11 10 8
48 47 46 45 45 44 43 41 40 40 41 41 42 46 47 46 45 46 48 48 51 54 52 50 49 51 51 47 47 46 45 47 47 48 50 50 51 52 53 54 54 53 51 50 49 47 45 43 42 40 38 36 34 33 33 32 31 29 27 25 24 24 24 24 23 22 21 21 21 19 19 20 19 20 20 20 20 19 19 18 18 17 16 15 14 13 11 10
49 47 46 45 45 45 44 42 41 41 43 44 44 47 48 48 48 48 50 51 53 54 51 49 49 50 50 47 47 45 42 43 45 46 48 49 50 51 53 54 53 53 52 51 49 48 46 44 42 40 38 36 35 34 34 32 30 28 26 25 24 25 25 25 24 23 22 22 22 21 20 20 21 21 21 21 20 20 20 20 19 18 17 16 15 14 13 11
49 48 46 45 45 46 45 43 42 43 45 46 46 48 49 50 50 50 51 54 55 54 52 51 50 51 51 48 46 43 40 40 43 45 46 48 49 50 52 53 53 53 52 51 49 48 47 45 43 41 39 38 36 34 32 29 27 26 25 25 25 26 26 26 25 24 24 23 23 23 21 21 22 22 22 22 21 21 22 21 20 19 18 18 16 15 14 13
49 48 46 46 46 47 46 44 44 44 46 48 48 49 50 51 52 51 51 54 56 55 54 52 52 52 51 48 45 42 40 40 42 44 45 47 48 49 51 52 53 53 52 52 50 49 47 45 44 42 39 37 34 32 30 29 28 29 29 28 28 28 27 27 26 26 25 25 25 24 23 23 23 23 23 23 22 22 22 21 21 21 20 18 17 16 16 15
49 48 47 46 47 48 48 46 45 45 48 50 49 50 51 52 53 52 50 53 55 55 53 51 51 51 50 47 44 42 41 40 41 43 44 46 47 48 49 51 52 53 52 51 50 49 47 46 43 40 37 35 34 34 33 33 32 31 31 31 30 29 29 29 29 28 28 27 26 26 25 24 24 23 24 24 23 22 22 22 22 22 21 19 18 18 17 17
50 49 48 47 47 48 48 47 46 45 48 51 50 50 51 51 52 51 49 51 54 55 53 51 51 52 50 46 44 42 42 41 41 42 44 45 47 48 49 50 51 51 51 51 50 49 48 46 42 39 39 38 38 38 37 36 35 34 33 32 31 30 30 30 30 30 30 29 28 27 27 26 25 25 26 25 23 22 23 24 24 24 23 22 20 19 20 19
50 50 49 48 48 47 47 47 46 45 48 52 51 50 50 50 51 51 49 51 52 54 54 52 51 52 50 47 45 44 42 42 42 42 44 45 46 47 48 49 49 49 50 50 49 49 49 46 43 43 43 42 42 40 39 37 36 35 34 33 32 31 31 31 31 31 31 31 30 29 29 27 28 28 27 26 24 23 25 25 24 25 25 24 23 22 22 21
50 51 51 50 48 48 47 47 46 45 47 51 51 50 51 51 52 53 53 53 53 53 52 51 50 50 49 47 46 45 43 42 42 41 42 44 45 46 47 47 48 48 49 49 49 49 47 46 45 45 44 43 42 40 39 37 36 36 35 34 33 32 33 33 33 33 33 33 32 32 31 29 30 30 28 27 26 25 27 27 26 26 26 25 25 24 24 24
51 51 52 51 49 48 48 47 45 45 47 52 52 50 51 52 54 55 55 56 56 54 52 51 50 49 49 48 46 46 44 43 43 41 41 43 44 45 46 47 48 48 48 49 49 48 47 47 47 46 44 43 42 41 39 38 37 37 36 35 35 34 34 34 34 34 34 34 34 34 33 32 31 31 30 29 28 27 28 29 28 28 27 27 27 26 26 26
52 51 52 52 50 48 48 45 44 44 47 52 53 51 51 52 54 56 57 58 59 58 56 53 52 50 50 49 48 48 46 45 44 43 43 43 44 44 45 47 48 48 48 49 49 50 49 49 48 47 46 44 43 42 41 40 39 38 37 37 36 36 36 36 36 36 36 36 35 36 36 34 32 33 32 31 30 29 29 29 29 29 29 29 29 29 29 28
53 52 52 52 50 49 48 44 43 44 47 52 54 51 51 52 54 57 58 59 61 61 58 55 54 53 51 51 50 49 49 48 46 45 45 45 45 45 45 46 47 48 48 48 49 50 50 49 48 47 46 45 44 43 41 41 40 39 39 38 38 37 37 37 37 37 37 37 37 37 38 36 33 33 34 33 33 32 31 30 29 29 30 31 31 31 31 30
53 52 52 52 50 49 48 44 43 44 46 53 55 52 51 52 55 57 58 61 63 62 60 57 56 54 53 53 51 50 50 49 47 47 46 45 45 45 45 45 46 47 48 49 49 48 48 48 47 46 45 45 43 42 41 41 40 40 39 39 39 38 38 38 38 39 39 39 39 38 39 39 35 34 35 35 35 34 33 31 30 30 31 32 32 32 32 32
54 52 52 51 50 49 47 45 45 45 46 54 56 52 51 52 55 57 58 62 65 63 61 59 57 55 55 55 54 53 51 49 48 48 46 45 46 46 45 45 44 45 47 47 47 46 46 46 46 45 44 44 43 43 43 42 42 41 40 40 40 40 40 40 40 40 40 40 40 39 39 41 38 34 35 36 36 36 35 33 32 32 32 33 33 34 34 34
55 53 51 51 50 49 48 46 47 46 48 55 57 53 52 53 55 57 59 64 66 64 62 60 58 57 57 57 56 55 52 50 49 48 46 45 46 46 46 45 45 45 45 44 44 45 45 45 45 45 44 44 44 44 44 43 42 42 41 41 41 41 41 41 41 40 41 41 40 39 40 42 40 36 35 37 37 37 36 35 35 34 34 34 35 36 36 36
56 54 52 51 49 49 49 47 48 48 48 55 59 54 53 54 56 58 62 66 67 64 63 62 60 59 58 58 58 57 55 52 50 49 48 47 45 45 46 46 46 45 45 45 45 45 45 45 45 46 46 46 45 45 44 44 43 42 42 42 42 42 41 41 41 40 41 41 40 40 40 41 42 39 36 37 37 38 37 37 37 36 36 36 36 37 37 37
57 56 54 52 50 48 48 48 50 49 48 55 62 57 55 56 56 60 65 67 67 64 64 63 61 60 59 58 59 59 57 54 52 51 50 48 47 46 47 47 47 47 46 46 46 46 45 46 47 47 46 47 46 46 46 45 44 44 43 43 42 42 41 41 41 40 42 41 39 40 40 41 43 40 37 36 36 37 38 38 38 37 38 38 38 38 37 38
57 57 56 54 51 48 49 50 51 49 49 56 63 60 57 59 60 63 66 66 67 66 64 63 61 60 59 59 59 59 59 56 54 52 50 49 49 48 47 47 47 48 48 48 48 48 48 48 48 48 48 48 47 47 47 46 46 45 45 44 43 42 42 41 41 41 41 40 40 40 40 41 42 41 40 37 34 35 37 37 38 38 39 39 39 39 39 40
58 57 57 55 52 50 51 52 52 50 50 57 65 62 59 61 64 65 66 66 67 66 63 62 61 61 61 61 62 61 59 58 56 54 52 51 50 49 48 47 47 47 47 47 47 48 49 49 49 49 49 49 49 48 48 46 45 45 44 43 42 41 41 40 40 40 40 39 39 39 39 41 41 41 41 38 34 34 35 36 37 37 38 38 38 39 40 40
59 58 58 57 54 54 54 53 52 51 52 59 66 64 61 64 65 64 66 68 67 65 63 63 63 63 63 63 63 62 61 60 58 56 54 53 52 52 51 50 48 47 47 47 47 48 48 49 49 49 49 48 48 47 46 44 43 43 42 41 41 40 40 40 39 39 38 38 39 39 39 41 40 40 39 36 33 32 33 34 35 35 35 36 36 37 37 38
59 59 59 58 57 56 54 52 51 52 55 59 65 66 66 67 66 64 67 67 66 65 64 64 64 64 65 65 65 64 62 61 59 58 56 55 53 51 50 50 49 49 49 49 49 48 48 48 48 48 48 48 48 47 46 45 44 44 43 43 42 41 41 41 40 39 38 38 38 38 39 39 38 37 36 33 31 31 32 32 32 32 34 34 34 34 34 35
60 60 59 59 58 57 55 53 51 53 55 58 65 69 67 66 65 64 65 65 65 65 65 66 67 66 66 67 67 67 64 62 60 59 58 56 54 53 51 50 49 49 49 48 48 49 48 48 48 48 48 47 47 46 45 45 45 45 44 43 42 41 40 40 39 39 38 39 39 38 39 37 35 35 34 31 31 30 30 30 29 30 31 31 32 32 33 34
59 59 60 60 59 57 57 54 52 54 55 59 64 59 53 59 65 63 63 64 64 66 67 67 69 69 69 68 68 68 66 63 61 61 59 58 57 55 52 51 50 49 48 47 48 47 47 48 48 48 48 47 46 45 45 44 44 44 44 43 42 41 41 40 41 41 41 41 40 39 37 35 33 33 31 30 30 31 30 30 29 29 29 30 31 32 33 34
58 59 60 61 60 58 58 57 55 54 55 59 59 49 45 57 66 64 63 64 65 67 68 69 69 69 69 69 68 67 67 65 64 63 62 60 59 55 53 52 50 49 49 48 48 48 47 47 48 47 48 48 47 47 47 47 46 46 46 45 44 44 43 43 43 43 42 42 40 38 36 34 33 31 30 30 31 31 31 31 31 31 30 31 32 32 34 35
60 62 62 62 61 60 59 59 57 55 55 57 53 47 48 57 65 66 65 64 64 66 67 68 69 69 69 69 68 67 68 67 65 64 63 62 60 57 54 52 51 51 50 49 49 50 49 48 48 48 47 48 48 48 49 49 48 48 48 47 46 45 44 44 43 43 42 41 41 39 38 35 32 30 30 31 32 32 32 32 33 33 34 34 33 33 34 34
59 62 63 62 60 61 61 61 59 58 56 53 49 48 51 57 63 67 66 64 65 66 65 66 68 68 69 69 69 68 68 67 66 65 64 62 60 58 55 53 53 51 51 51 51 51 50 49 49 48 48 48 49 49 48 47 47 47 46 46 45 44 44 43 43 43 42 42 42 42 41 37 32 30 31 31 32 33 33 34 35 36 35 35 34 34 35 35
54 57 61 62 62 61 62 62 62 60 55 50 48 50 53 56 61 65 67 67 66 66 65 65 66 67 68 69 70 69 68 68 67 66 65 63 61 59 56 54 53 52 53 54 53 52 51 50 50 50 49 48 48 47 47 46 45 45 45 45 44 43 43 43 44 44 43 44 43 43 43 38 32 31 31 31 32 33 34 35 36 36 35 35 36 36 37 37
51 53 56 59 61 63 63 61 60 59 57 52 50 51 51 53 56 62 67 69 68 67 66 65 65 66 67 69 69 68 68 68 68 67 66 64 62 59 57 55 54 54 54 54 53 53 52 51 51 51 50 48 48 47 46 46 45 45 46 45 45 45 46 46 47 46 44 45 44 44 45 40 33 31 31 32 34 35 36 37 37 37 37 37 38 38 39 39
53 53 54 54 56 61 63 62 61 60 59 55 53 52 52 52 54 58 64 69 70 69 68 66 66 66 67 68 69 68 67 67 67 67 65 64 63 61 59 58 56 56 55 56 55 54 53 54 53 52 51 51 50 49 48 47 47 47 46 45 46 47 48 48 48 47 46 46 44 44 45 40 34 32 32 34 37 39 39 38 39 39 39 40 40 41 42 43
54 54 53 51 52 57 61 61 62 61 58 56 56 57 56 55 55 56 61 67 70 70 69 68 67 66 66 68 69 69 68 67 67 67 66 66 64 62 61 60 59 58 57 56 55 55 55 56 56 55 55 55 54 53 52 51 49 48 47 47 48 48 48 48 47 47 47 45 42 43 43 40 37 35 33 35 39 40 39 39 40 40 41 42 44 44 45 45
52 51 51 51 52 55 56 54 56 60 61 61 60 60 59 58 57 55 57 63 68 70 70 69 68 67 66 67 68 69 69 69 68 67 67 68 66 64 63 62 60 59 58 57 56 56 57 57 57 57 58 58 57 56 53 51 50 50 49 48 48 48 48 47 47 48 47 43 43 45 43 39 37 37 37 37 39 40 41 41 42 42 43 45 46 46 47 47
50 51 51 52 52 52 50 48 49 54 61 65 63 61 61 60 58 55 54 59 67 70 70 70 69 68 68 68 69 69 70 70 69 69 68 68 68 66 64 63 62 60 59 59 59 59 59 60 60 59 59 58 55 53 51 49 49 49 47 47 47 47 47 48 49 50 46 44 47 47 43 40 40 40 41 40 40 41 43 43 44 45 47 47 47 48 49 50
52 51 51 53 53 52 51 48 46 47 52 59 62 62 62 61 59 56 54 56 62 68 70 71 71 71 70 69 69 69 69 69 70 71 70 69 69 68 66 65 64 62 61 61 61 62 63 63 62 61 61 58 56 55 54 52 51 49 48 47 47 46 47 48 50 48 46 48 50 46 43 43 42 42 42 41 42 43 44 46 48 50 51 50 49 50 51 53
55 55 53 52 52 54 55 51 48 47 47 51 57 62 64 63 60 57 54 53 58 64 68 70 71 72 71 69 69 69 69 69 71 71 71 69 69 69 69 68 67 65 64 63 63 64 64 64 63 62 61 59 59 59 58 57 55 54 54 53 51 50 50 51 52 50 50 52 50 45 45 44 43 43 43 44 46 47 47 49 52 53 53 53 53 54 55 57
55 57 58 55 51 51 55 55 52 51 49 48 51 57 63 66 62 57 54 53 55 60 65 68 70 70 70 70 70 70 70 70 70 70 70 70 70 70 69 69 69 68 66 66 65 65 66 65 64 64 63 62 61 62 60 60 60 59 58 58 57 57 57 57 56 54 54 55 51 49 51 48 45 47 48 47 50 51 51 53 55 56 57 57 58 58 59 60
54 57 60 60 54 48 51 56 56 55 53 52 51 51 55 62 64 60 57 55 54 56 60 63 65 67 69 70 71 72 71 70 68 68 69 70 70 70 70 69 69 68 68 67 66 66 67 66 65 66 66 66 65 64 63 63 63 63 62 61 61 60 60 60 58 57 58 59 55 55 57 52 48 51 51 49 52 54 53 55 56 57 59 60 61 61 61 62
53 56 59 61 59 52 49 52 56 58 57 57 54 50 49 54 59 61 61 58 55 54 55 57 61 64 67 69 71 71 70 69 69 69 69 70 70 70 69 69 68 67 67 66 65 65 66 66 66 67 68 68 67 66 67 67 67 68 67 65 64 63 62 61 60 59 61 61 58 60 60 55 52 54 52 51 54 55 56 56 57 58 60 61 62 63 63 64
53 55 58 60 62 59 54 51 53 57 59 58 55 53 51 49 51 58 62 61 58 56 54 56 60 63 65 67 68 68 68 69 70 70 70 70 70 70 69 68 68 67 66 64 64 63 63 63 64 65 66 67 66 66 67 67 70 72 70 66 64 63 63 63 63 62 62 62 61 63 61 56 54 56 56 56 58 59 59 59 59 60 61 63 63 64 64 65
Wind_Direction
221 221 222 222 221 221 223 224 227 230 230 228 226 228 230 232 230 227 223 219 220 220 223 224 214 214 218 214 207 200 192 185 177 176 178 179 182 182 181 181 182 182 181 180 178 178 178 180 183 183 181 179 175 172 172 172 168 164 163 165 165 162 167 177 178 175 173 170 169 167 160 158 161 162 163 162 159 158 153 147 140 138 136 134 128 118 108 97
220 220 220 220 219 220 221 222 225 228 228 226 226 228 230 232 230 228 224 219 220 220 222 225 217 213 217 215 206 196 188 181 176 176 178 181 183 183 183 183 183 183 182 181 179 178 178 180 182 182 181 178 174 173 175 173 167 164 161 165 171 168 169 174 177 178 174 174 176 171 164 164 168 168 169 169 165 160 156 151 147 145 141 136 133 127 118 109
219 219 219 218 218 218 220 221 224 226 226 225 225 227 230 232 230 228 225 220 220 221 222 223 219 213 215 216 206 193 185 178 174 176 179 182 184 183 183 184 184 183 183 182 180 179 178 180 182 181 179 177 175 175 176 172 166 164 162 169 176 172 171 174 178 181 175 176 179 173 168 170 174 175 176 174 169 163 159 157 155 151 147 141 138 136 131 121
219 219 217 217 217 217 219 220 222 224 224 224 224 226 230 231 228 227 224 222 221 222 223 220 218 212 212 213 203 190 182 176 174 177 180 182 184 184 184 185 185 184 183 182 181 180 179 181 181 180 178 176 176 176 175 172 167 166 167 174 177 171 174 176 178 182 178 178 181 176 173 175 178 180 180 177 172 167 162 162 161 158 153 148 145 144 145 133
218 217 216 216 216 217 218 220 222 222 222 223 223 224 229 229 226 225 223 222 222 224 224 220 217 212 209 208 199 187 179 174 174 178 181 183 184 185 185 185 185 185 183 181 180 180 181 182 181 179 177 176 175 176 175 171 168 169 173 178 178 174 178 179 178 182 181 180 182 181 179 180 183 184 181 178 175 170 165 166 167 164 160 155 153 153 154 144
217 216 215 215 215 217 218 220 221 221 221 221 221 222 227 227 224 223 222 222 224 225 225 221 215 210 207 202 194 185 177 173 176 179 182 183 184 186 186 186 185 185 183 182 180 180 181 182 181 179 177 175 175 177 176 172 171 174 178 180 180 179 182 181 178 181 183 183 185 185 185 185 185 187 183 179 177 173 169 169 171 171 167 163 159 157 156 150
215 214 214 214 215 216 218 219 221 220 219 219 219 221 224 224 221 220 221 222 225 227 226 220 212 208 203 195 188 182 175 174 177 179 182 184 185 187 187 186 185 185 184 182 180 181 182 182 181 180 178 177 177 178 176 174 175 179 182 181 182 183 184 184 180 182 185 187 189 188 189 189 188 188 185 181 179 179 176 173 175 177 173 168 162 159 155 149
214 214 214 214 214 215 217 219 220 219 218 217 217 219 221 218 216 217 219 222 225 228 225 216 208 204 197 189 183 178 173 176 179 180 183 185 187 188 187 187 185 184 184 183 181 181 182 182 181 181 179 178 178 178 177 177 179 184 186 184 185 185 186 187 182 184 186 189 194 193 192 193 191 189 188 184 180 182 182 180 179 179 177 171 164 159 154 147
213 213 213 213 214 215 216 218 219 218 216 216 215 217 217 212 212 214 217 222 225 227 220 209 202 198 191 185 179 175 174 178 180 182 184 186 188 188 188 187 186 185 184 183 183 182 183 183 182 182 181 179 178 178 178 180 182 188 190 185 187 188 187 187 185 187 189 192 196 196 197 197 195 191 190 187 184 184 185 187 185 180 179 175 168 162 156 149
211 211 212 212 213 214 215 217 217 217 215 214 213 215 212 206 208 211 216 222 224 223 213 202 197 192 186 181 177 175 176 180 182 184 186 187 189 189 188 187 186 185 184 184 184 184 184 184 184 184 183 182 180 179 181 183 185 191 192 186 188 192 191 188 187 190 193 197 199 199 201 202 199 192 191 191 188 187 187 189 190 184 181 179 173 169 162 155
211 211 212 211 212 213 214 215 215 215 214 212 212 212 207 203 205 209 214 219 221 217 205 196 190 186 182 179 175 176 179 181 184 186 187 189 189 189 189 187 187 186 185 185 185 185 186 186 186 186 185 185 183 182 184 186 188 193 194 189 189 193 195 192 190 192 196 201 203 202 204 206 201 194 194 195 193 193 191 190 191 188 186 184 180 178 176 170
210 210 211 210 211 213 213 213 213 213 212 210 210 209 204 202 204 208 212 215 215 208 198 190 185 182 180 178 176 179 182 182 185 187 188 190 190 190 189 188 187 187 187 187 187 187 187 188 188 187 187 187 187 187 188 189 192 195 196 194 193 194 196 196 193 195 199 203 206 206 206 207 203 198 197 197 198 198 196 193 193 191 190 189 187 187 189 185
210 210 210 209 210 212 212 211 211 211 210 209 208 207 204 201 203 207 209 209 207 200 192 186 182 180 178 177 178 182 184 184 187 188 190 191 191 191 190 190 189 189 189 189 189 189 189 189 189 190 190 190 192 192 192 193 194 197 200 199 197 196 197 199 198 199 201 203 208 208 206 208 206 202 199 198 202 203 200 197 196 196 196 198 198 198 201 200
210 210 210 208 210 211 210 210 210 209 208 207 206 205 204 202 203 206 205 204 201 194 188 183 181 179 177 177 180 184 185 186 188 189 192 192 191 191 191 191 191 191 191 191 192 191 191 191 192 193 193 194 195 195 196 197 198 199 202 203 201 200 200 203 203 204 205 205 209 209 206 209 208 206 203 201 204 205 203 201 200 202 203 205 208 210 212 214
210 210 210 208 210 210 209 209 208 207 207 206 204 203 204 204 204 205 201 199 196 191 186 184 182 180 177 177 182 184 185 187 189 191 192 193 193 192 192 193 193 193 193 193 194 193 194 194 195 196 197 197 197 197 198 200 201 202 204 206 205 204 204 206 208 208 208 208 211 211 207 210 210 210 209 205 205 207 207 205 204 207 209 211 214 217 221 225
210 211 210 209 210 210 209 208 207 206 206 205 204 203 203 204 205 205 199 194 193 189 187 186 185 183 179 179 183 184 185 188 190 192 193 194 194 194 194 195 195 195 196 196 196 195 196 197 198 199 199 200 200 200 201 202 204 204 205 207 208 210 210 211 212 212 212 212 215 214 210 212 212 213 214 211 208 209 211 211 210 212 215 218 220 224 230 236
210 211 210 209 211 211 209 208 206 206 206 205 204 203 204 204 206 206 198 192 191 189 190 191 189 186 183 182 183 183 185 189 191 193 194 195 195 196 196 196 196 197 198 199 199 198 198 200 201 201 202 203 203 204 205 205 206 207 208 209 211 213 214 215 215 215 216 215 217 218 215 214 214 216 217 217 214 212 214 216 216 217 221 225 228 232 238 245
210 211 210 210 212 212 210 208 206 206 207 206 205 204 204 204 206 208 200 193 191 191 194 194 191 189 186 183 183 185 187 190 193 195 196 197 197 197 197 197 198 199 200 201 201 201 201 202 203 204 204 205 206 207 208 209 211 214 215 215 216 217 218 218 218 219 220 219 220 221 220 218 218 220 221 220 218 216 217 220 221 223 227 230 233 238 244 251
210 211 210 210 212 213 211 209 207 207 208 207 206 205 205 205 207 208 203 195 193 193 195 195 192 190 187 185 186 188 190 192 195 196 197 197 198 199 199 199 200 200 201 202 203 204 204 205 205 205 206 208 210 211 213 214 215 217 218 218 218 220 220 221 222 223 223 222 222 223 223 223 223 224 225 224 221 220 223 225 226 229 232 235 237 242 247 254
210 211 210 210 212 213 212 209 208 208 208 207 207 206 206 206 208 209 204 198 195 194 195 195 194 192 189 189 190 191 193 194 196 198 198 199 199 200 201 201 201 202 202 203 204 205 206 207 207 207 210 213 215 216 217 217 217 218 219 220 220 221 221 222 223 223 224 225 224 225 226 228 228 227 228 229 225 224 227 230 231 233 236 239 242 246 250 254
210 210 210 210 213 214 213 211 209 209 208 207 207 206 206 207 210 211 206 200 198 195 194 195 195 193 191 192 194 195 195 196 197 199 200 201 201 202 202 203 203 204 204 205 206 207 209 209 209 210 213 215 217 218 219 219 219 221 222 223 223 224 225 225 226 226 226 226 226 227 227 228 231 230 230 232 229 227 230 233 234 236 238 241 244 247 251 255
209 210 210 211 212 215 215 213 211 210 208 207 207 206 206 207 209 211 209 204 201 198 195 194 194 194 192 193 195 196 197 197 199 200 202 203 203 204 204 205 205 206 207 208 209 209 210 209 210 213 215 216 218 219 220 220 222 223 225 226 226 227 228 229 230 229 229 229 228 229 228 227 232 234 233 233 231 229 233 235 236 239 241 244 247 248 252 256
208 209 210 211 212 213 215 215 213 212 209 207 207 207 207 207 208 210 210 207 204 201 198 196 195 195 193 194 196 196 197 198 199 201 203 204 206 207 207 207 208 209 210 211 212 213 213 213 215 217 217 219 220 222 223 224 225 226 227 229 229 229 230 230 231 231 230 231 231 231 231 228 231 236 237 237 234 230 234 236 237 241 244 247 250 252 254 257
208 209 210 211 212 213 214 216 214 213 210 207 208 208 207 208 208 208 210 209 206 203 202 200 199 198 195 195 196 197 197 198 199 200 202 205 207 208 209 209 210 211 212 213 214 215 216 217 218 219 220 221 223 224 225 226 227 228 229 230 231 231 231 231 232 232 231 232 232 233 233 230 230 236 238 240 239 234 234 237 238 241 244 247 251 253 256 258
208 208 209 210 212 213 214 215 214 214 211 208 209 208 208 208 208 208 210 211 208 204 203 202 201 201 199 197 197 198 198 198 199 199 199 202 205 207 209 210 211 211 213 214 215 216 216 217 218 220 221 222 224 226 227 227 228 229 230 231 232 232 232 232 233 233 233 234 235 235 237 233 229 234 237 239 241 239 237 238 239 242 244 247 250 253 256 259
208 208 209 210 211 214 215 214 214 216 212 209 210 209 208 209 209 209 210 212 211 206 204 202 202 202 201 199 199 199 199 198 199 199 199 201 202 205 207 209 211 212 212 214 215 216 217 218 219 220 221 222 224 225 226 227 228 229 230 231 232 233 234 234 234 235 235 236 236 237 240 239 232 232 237 238 241 242 241 241 241 244 246 248 250 254 257 261
208 208 209 210 211 213 215 214 214 217 214 210 210 209 208 209 210 210 210 214 214 208 204 203 202 202 200 201 201 201 201 199 199 200 201 202 202 204 206 207 209 211 213 214 214 215 217 218 220 221 222 223 224 226 227 228 229 230 231 232 233 234 234 235 235 235 236 237 237 238 241 244 238 232 235 239 240 242 243 244 244 245 248 250 252 255 257 260
208 208 209 210 211 212 214 214 215 218 216 210 209 210 208 209 211 210 211 215 215 210 205 203 202 202 202 202 202 203 202 201 202 202 202 203 204 205 206 206 208 211 213 215 216 216 218 219 220 222 224 226 226 227 228 229 230 231 231 232 233 234 234 235 235 235 236 237 238 239 241 246 245 235 233 239 241 242 244 245 246 246 248 251 254 256 257 259
208 208 210 211 211 211 213 214 215 218 217 210 209 210 208 209 211 211 212 215 215 211 207 204 202 203 204 203 203 204 203 203 204 204 204 206 206 206 208 208 209 211 212 213 214 216 217 219 220 222 223 225 226 226 227 228 230 231 232 232 233 234 235 235 236 236 238 238 239 241 241 246 250 242 234 237 241 243 245 246 247 248 249 251 253 256 258 259
208 208 210 211 211 212 213 215 215 218 218 211 209 210 209 209 212 213 213 214 214 212 209 206 204 204 204 204 203 204 204 205 205 205 206 208 209 209 210 210 211 212 212 212 213 214 216 217 219 220 221 222 223 224 226 227 229 230 231 233 234 235 236 237 238 239 240 241 241 242 243 246 251 248 240 237 239 242 244 246 248 249 250 251 253 255 258 260
207 208 210 210 211 212 214 216 217 219 220 212 208 211 210 210 213 215 214 213 214 213 209 207 206 205 205 205 204 204 205 206 207 208 208 209 210 210 212 212 212 213 213 213 214 215 216 218 219 220 220 222 223 225 226 226 228 230 232 233 234 235 236 237 239 240 241 244 244 244 245 246 250 252 247 241 240 242 245 246 247 249 251 252 253 255 257 260
207 208 211 211 210 212 214 217 217 219 221 213 208 211 212 211 213 214 213 213 215 213 209 208 208 206 206 207 207 206 206 207 208 209 210 210 212 212 213 215 215 216 216 215 216 216 217 219 220 221 221 222 224 225 226 227 229 230 231 233 234 236 237 239 240 242 244 246 246 246 247 247 250 254 254 249 244 244 246 247 249 249 251 253 255 256 258 259
208 209 211 212 211 212 214 217 218 220 222 214 209 210 213 214 214 213 213 214 215 213 210 209 209 208 208 208 209 208 208 209 211 212 212 212 213 213 215 216 217 219 219 220 221 220 220 221 221 222 223 224 225 227 228 229 231 232 233 234 236 237 240 241 243 245 246 247 248 248 249 249 250 252 254 254 252 248 248 249 250 252 253 254 255 257 258 259
209 209 211 212 212 213 215 217 218 223 223 214 208 210 214 215 213 212 214 215 215 214 211 210 210 210 210 211 211 210 210 211 212 214 215 215 215 214 214 216 216 218 219 220 222 224 225 225 225 226 227 227 228 229 230 231 232 233 233 235 237 239 241 243 244 245 246 247 248 249 249 251 252 252 254 256 256 255 252 251 252 254 255 256 256 258 259 260
210 210 211 213 213 214 217 218 218 220 219 212 208 210 214 215 212 212 215 216 215 215 212 211 212 211 212 212 212 213 213 213 212 214 216 218 218 218 217 218 218 218 219 219 221 222 224 226 227 229 229 229 230 230 230 231 232 233 233 235 236 237 239 241 243 244 246 247 248 250 251 252 254 255 256 257 257 256 255 253 254 255 256 258 259 259 259 260
211 212 213 214 214 215 218 220 218 216 216 212 209 211 214 214 212 213 216 217 217 217 214 212 213 213 213 214 213 214 214 214 214 216 217 218 219 219 220 221 221 221 222 222 223 224 224 225 225 227 229 230 230 231 231 231 233 234 235 236 237 239 240 243 245 246 247 248 249 250 251 252 254 255 257 258 258 257 256 255 254 254 255 257 258 259 259 260
213 213 214 216 216 216 218 221 218 214 215 214 213 216 219 216 214 214 216 216 217 218 217 215 214 214 214 215 215 215 215 214 215 217 218 219 220 219 219 220 222 223 224 225 226 227 227 228 227 228 229 230 231 232 233 233 234 236 237 238 239 240 240 241 243 244 245 247 248 249 251 252 254 256 258 259 259 259 258 257 256 254 253 254 255 257 259 260
214 214 216 218 218 218 219 221 219 215 216 217 218 222 221 217 215 215 215 216 216 218 218 216 216 216 216 217 217 217 216 216 216 217 218 220 220 220 220 222 222 224 224 225 226 227 227 229 229 229 230 231 231 232 232 232 233 235 236 236 237 239 239 240 243 244 246 249 251 252 253 252 253 255 257 258 258 259 259 260 260 259 257 256 256 257 259 260
217 215 216 219 219 219 220 222 221 218 217 219 221 222 219 217 217 216 216 216 217 219 219 218 217 217 217 219 219 219 219 218 218 219 219 220 221 220 221 223 224 225 226 227 228 228 228 228 229 229 229 230 231 232 232 233 234 235 236 237 238 240 241 242 244 247 250 252 253 253 252 251 251 253 256 258 259 260 260 261 262 262 261 261 261 261 261 262
218 217 217 219 220 221 221 223 223 221 219 218 220 223 222 219 218 217 217 218 219 219 220 220 219 218 218 219 220 221 221 221 220 221 222 222 223 222 222 224 225 226 228 228 229 229 230 230 231 231 230 231 232 233 234 235 237 238 239 240 242 243 246 247 248 249 251 253 253 254 252 250 251 253 255 257 259 260 262 262 262 263 264 265 265 265 265 266
220 219 218 219 221 222 223 223 224 225 222 218 218 221 223 222 222 220 219 219 220 220 220 220 221 220 219 219 220 221 222 222 222 223 224 224 225 225 225 226 228 228 230 231 230 231 232 232 233 233 233 233 234 235 236 237 237 238 239 241 242 244 245 247 248 248 250 251 252 254 253 250 250 252 254 257 259 260 261 262 262 263 265 266 267 268 269 270
220 220 220 220 221 223 224 224 225 225 224 222 221 222 222 223 225 224 222 221 221 221 221 221 221 221 221 220 221 222 223 223 224 224 225 226 226 228 228 229 230 231 232 234 234 234 235 235 235 236 236 236 236 235 235 237 237 238 238 239 241 243 243 244 246 247 247 248 249 252 254 252 251 253 256 259 260 260 261 262 263 265 266 267 268 269 270 271
217 220 221 222 223 224 225 224 224 224 221 220 221 223 224 225 227 227 226 225 224 222 221 221 221 221 221 221 221 222 223 224 224 225 226 227 227 229 230 230 231 232 233 234 235 235 236 236 237 237 237 237 237 237 236 237 237 238 239 240 241 243 244 245 246 247 247 248 250 254 256 256 256 256 257 259 260 261 262 265 267 268 269 270 270 270 270 270
212 219 222 223 222 224 225 225 225 225 222 219 220 223 225 227 228 229 228 227 226 225 223 222 222 222 223 223 223 223 223 224 224 224 225 226 227 229 231 231 231 233 234 235 237 238 238 238 238 237 237 237 236 236 236 237 238 240 241 242 242 244 245 246 248 249 250 251 254 256 257 257 259 260 259 259 261 263 266 267 267 268 269 270 270 271 272 273
206 212 217 219 219 222 225 226 226 227 225 222 222 223 226 227 229 231 230 229 227 226 225 224 223 223 224 224 224 224 224 224 224 224 224 225 226 228 230 231 231 233 234 235 236 237 238 239 239 239 239 238 238 239 240 242 244 245 245 245 246 248 249 250 251 251 252 254 255 256 257 258 260 261 260 260 262 265 267 267 267 268 268 269 270 271 273 275
203 206 210 214 217 222 226 227 226 225 225 224 223 224 226 228 230 231 231 230 228 227 226 225 224 224 224 225 225 225 225 224 224 224 224 224 226 227 229 231 231 231 232 233 234 235 237 237 237 238 240 241 242 244 245 247 248 249 250 251 252 253 253 253 252 252 254 256 255 254 256 258 258 259 261 262 263 265 267 269 269 268 267 268 270 271 273 274
206 206 208 211 216 221 225 227 226 224 225 225 224 224 226 228 230 230 231 231 229 227 227 226 224 225 225 225 226 227 227 226 226 226 225 225 226 227 228 230 232 231 232 233 234 235 236 237 238 239 241 241 242 242 242 243 244 245 247 248 250 251 252 252 252 252 252 253 253 253 255 257 259 261 263 265 265 265 267 268 269 269 269 270 271 272 273 273
210 209 209 212 215 220 223 226 227 226 225 225 225 224 224 227 229 229 230 232 231 228 228 227 226 225 225 225 227 228 228 228 228 228 227 226 227 228 229 230 231 232 232 233 235 236 237 239 240 241 242 242 243 243 243 243 243 243 243 243 243 244 245 247 249 249 250 253 256 258 258 259 262 264 264 265 265 265 266 267 268 270 272 273 273 272 273 273
212 211 211 212 214 218 223 225 226 227 227 226 226 224 224 226 228 227 228 231 232 230 229 229 228 228 227 226 227 228 229 229 230 230 230 229 229 229 230 231 232 234 234 235 236 237 239 240 241 242 243 243 243 244 245 245 245 244 244 244 244 243 244 246 250 253 256 258 261 262 261 261 263 265 266 267 266 266 266 267 268 270 271 272 273 273 274 275
214 213 212 213 213 214 220 223 224 225 227 227 227 226 226 226 226 226 226 228 230 231 231 230 230 231 230 228 228 228 229 230 231 231 232 232 232 232 232 232 233 234 236 237 237 237 239 240 241 242 243 243 243 244 245 246 246 246 245 245 244 244 246 251 255 258 259 261 262 263 264 263 264 268 269 268 267 266 267 267 267 269 270 271 272 273 274 275
217 215 214 215 213 210 213 220 222 222 224 226 226 227 228 227 227 228 228 228 228 230 230 230 231 232 232 231 230 229 229 230 231 232 232 233 233 233 234 235 234 235 236 237 238 238 239 240 240 241 243 243 244 245 246 247 247 246 244 244 245 249 253 257 260 260 261 263 264 264 265 265 267 269 269 267 266 266 266 266 266 266 267 268 270 271 273 274
220 219 217 216 216 212 209 214 219 220 222 224 225 227 229 229 228 229 230 229 229 229 229 229 229 232 233 233 232 231 231 231 232 233 233 233 233 233 234 234 235 235 236 238 239 240 241 241 241 242 243 244 244 245 246 247 246 245 245 249 252 256 259 260 260 260 261 263 264 265 266 268 268 267 266 265 265 265 265 265 265 266 266 268 269 271 272 273
Height
5707 5711 5715 5718 5722 5725 5728 5730 5732 5734 5737 5740 5744 5746 5748 5750 5752 5755 5757 5760 5762 5765 5768 5770 5772 5774 5776 5779 5782 5785 5789 5793 5797 5803 5808 5811 5814 5818 5821 5824 5828 5831 5833 5835 5837 5840 5843 5847 5850 5852 5854 5855 5857 5859 5860 5861 5863 5864 5866 5868 5869 5871 5872 5873 5874 5875 5875 5875 5876 5876 5877 5878 5879 5880 5881 5881 5882 5882 5883 5883 5883 5884 5885 5885 5885 5885 5886 5886
5705 5708 5712 5715 5719 5722 5725 5728 5730 5732 5734 5737 5741 5743 5745 5747 5749 5752 5754 5757 5759 5762 5764 5766 5769 5771 5774 5777 5780 5782 5786 5790 5795 5801 5805 5809 5813 5817 5821 5824 5827 5830 5833 5835 5836 5839 5842 5845 5849 5851 5853 5855 5856 5858 5859 5861 5862 5863 5865 5867 5869 5870 5871 5873 5874 5874 5875 5875 5876 5876 5877 5878 5879 5880 5881 5881 5882 5882 5882 5882 5883 5884 5884 5885 5885 5885 5885 5886
5702 5705 5709 5713 5716 5719 5722 5725 5727 5730 5732 5735 5738 5740 5742 5744 5747 5749 5751 5754 5756 5759 5761 5763 5766 5768 5771 5776 5778 5779 5782 5787 5793 5799 5803 5807 5812 5816 5819 5823 5826 5829 5831 5834 5836 5838 5841 5844 5847 5849 5852 5854 5855 5857 5859 5860 5862 5863 5865 5867 5868 5870 5871 5872 5873 5874 5874 5875 5876 5876 5877 5878 5879 5880 5880 5881 5882 5882 5882 5882 5883 5883 5884 5885 5885 5885 5885 5885
5700 5703 5707 5710 5713 5717 5720 5722 5725 5727 5730 5732 5735 5738 5740 5741 5744 5746 5749 5751 5754 5756 5758 5760 5763 5765 5769 5774 5775 5777 5779 5785 5792 5797 5801 5806 5810 5815 5818 5821 5825 5828 5830 5833 5836 5838 5841 5843 5846 5848 5850 5852 5854 5856 5858 5860 5861 5862 5864 5866 5868 5869 5870 5871 5872 5873 5874 5875 5875 5876 5876 5877 5878 5879 5880 5881 5881 5881 5882 5882 5882 5883 5884 5884 5885 5885 5885 5885
5697 5701 5704 5708 5711 5714 5717 5720 5722 5725 5727 5730 5733 5735 5737 5739 5742 5744 5746 5749 5751 5753 5755 5757 5760 5763 5767 5771 5773 5775 5778 5785 5790 5794 5800 5804 5809 5813 5816 5820 5823 5827 5829 5831 5834 5837 5840 5842 5845 5847 5849 5851 5853 5856 5857 5859 5861 5862 5864 5865 5867 5868 5869 5870 5871 5873 5873 5874 5875 5875 5876 5877 5878 5879 5879 5880 5881 5881 5881 5882 5882 5883 5884 5884 5884 5885 5885 5885
5695 5698 5702 5705 5708 5711 5714 5717 5719 5722 5725 5727 5730 5732 5734 5736 5739 5741 5744 5746 5748 5751 5752 5754 5757 5760 5765 5768 5771 5774 5778 5784 5788 5793 5799 5803 5808 5812 5815 5819 5822 5825 5828 5830 5833 5836 5839 5841 5844 5847 5849 5850 5852 5855 5857 5858 5860 5861 5863 5865 5866 5867 5869 5870 5870 5872 5873 5874 5874 5875 5876 5876 5877 5878 5879 5880 5880 5881 5881 5882 5882 5883 5883 5884 5884 5885 5885 5885
5692 5696 5699 5702 5706 5708 5711 5714 5717 5719 5722 5725 5727 5730 5732 5734 5736 5739 5741 5744 5746 5748 5750 5752 5754 5758 5762 5765 5769 5774 5778 5782 5787 5792 5797 5802 5807 5811 5814 5817 5821 5824 5827 5830 5832 5835 5838 5841 5843 5846 5848 5849 5851 5853 5856 5858 5859 5861 5862 5864 5865 5866 5868 5869 5870 5871 5872 5873 5874 5875 5876 5876 5877 5877 5878 5879 5879 5880 5880 5881 5882 5883 5883 5883 5884 5885 5885 5885
5690 5693 5697 5700 5703 5706 5708 5711 5714 5717 5719 5722 5725 5727 5729 5732 5734 5736 5739 5741 5744 5746 5747 5749 5752 5756 5760 5764 5768 5772 5777 5781 5786 5791 5796 5801 5805 5809 5813 5816 5819 5823 5826 5829 5831 5834 5837 5839 5842 5844 5846 5848 5850 5852 5855 5857 5858 5860 5861 5863 5864 5865 5867 5868 5869 5870 5871 5872 5873 5874 5875 5876 5876 5877 5877 5878 5879 5879 5880 5881 5882 5883 5883 5883 5884 5884 5885 5885
5687 5691 5694 5697 5700 5703 5706 5709 5711 5714 5717 5719 5722 5724 5727 5729 5732 5734 5737 5739 5742 5743 5745 5747 5750 5754 5758 5762 5766 5771 5776 5780 5785 5789 5794 5799 5804 5808 5811 5815 5818 5821 5824 5828 5830 5833 5836 5838 5841 5843 5845 5847 5849 5851 5853 5855 5857 5859 5860 5862 5863 5864 5866 5867 5868 5869 5870 5871 5872 5873 5874 5875 5876 5876 5877 5877 5878 5879 5880 5880 5881 5882 5882 5883 5883 5884 5884 5885
5684 5688 5691 5694 5697 5700 5703 5706 5709 5711 5714 5717 5719 5722 5725 5727 5730 5733 5735 5737 5740 5741 5743 5745 5748 5752 5757 5760 5765 5770 5774 5779 5784 5788 5793 5798 5802 5806 5809 5813 5816 5820 5823 5826 5829 5832 5835 5837 5839 5841 5843 5845 5847 5849 5851 5854 5856 5857 5859 5861 5862 5863 5865 5866 5867 5868 5869 5870 5872 5873 5873 5874 5875 5876 5876 5877 5877 5878 5879 5880 5881 5881 5882 5882 5883 5883 5884 5884
5681 5685 5688 5692 5694 5697 5700 5703 5706 5709 5712 5714 5717 5720 5723 5725 5728 5731 5733 5735 5738 5740 5741 5743 5747 5751 5755 5759 5764 5769 5773 5777 5782 5787 5791 5796 5800 5804 5807 5811 5814 5818 5821 5825 5827 5830 5832 5835 5837 5840 5842 5844 5846 5848 5849 5852 5854 5856 5857 5859 5861 5862 5863 5865 5866 5867 5868 5870 5871 5872 5872 5873 5874 5875 5875 5876 5877 5878 5879 5880 5881 5881 5882 5882 5883 5883 5883 5884
5678 5682 5685 5689 5692 5695 5698 5701 5704 5707 5709 5712 5714 5717 5720 5723 5726 5729 5731 5734 5736 5738 5740 5742 5745 5749 5753 5758 5763 5767 5771 5776 5781 5785 5790 5794 5798 5802 5806 5809 5812 5816 5819 5822 5825 5827 5830 5833 5836 5838 5840 5842 5844 5846 5848 5850 5852 5854 5856 5858 5859 5860 5862 5863 5865 5867 5868 5869 5870 5871 5872 5873 5874 5874 5875 5875 5876 5877 5878 5879 5880 5881 5881 5881 5882 5882 5883 5883
5675 5679 5682 5686 5689 5692 5695 5698 5701 5704 5707 5710 5713 5716 5719 5721 5724 5727 5729 5732 5734 5737 5739 5741 5744 5747 5752 5757 5762 5765 5769 5774 5779 5784 5788 5791 5796 5800 5804 5807 5811 5814 5817 5819 5822 5825 5828 5831 5834 5836 5838 5840 5842 5844 5846 5848 5850 5852 5854 5856 5858 5859 5861 5862 5864 5865 5866 5868 5869 5870 5871 5872 5873 5873 5874 5875 5875 5876 5877 5878 5879 5880 5880 5881 5881 5882 5882 5882
5672 5676 5679 5682 5686 5689 5692 5696 5699 5702 5705 5708 5710 5714 5717 5720 5722 5725 5727 5729 5732 5736 5738 5740 5743 5746 5751 5756 5760 5763 5768 5773 5777 5782 5786 5790 5794 5798 5802 5806 5809 5812 5815 5818 5821 5823 5826 5829 5831 5834 5836 5838 5840 5842 5844 5846 5849 5851 5853 5855 5856 5858 5860 5861 5863 5864 5865 5867 5868 5869 5870 5871 5872 5872 5873 5874 5874 5875 5876 5877 5878 5879 5879 5880 5880 5881 5881 5881
5669 5672 5676 5679 5683 5686 5689 5693 5696 5699 5702 5705 5708 5711 5715 5718 5720 5723 5725 5727 5730 5734 5737 5740 5743 5746 5750 5754 5757 5762 5767 5772 5776 5780 5784 5788 5791 5795 5799 5803 5806 5809 5812 5815 5818 5821 5824 5827 5829 5831 5834 5836 5838 5840 5842 5845 5847 5849 5851 5853 5855 5857 5859 5860 5861 5863 5864 5865 5866 5868 5869 5870 5871 5871 5872 5873 5874 5875 5875 5876 5877 5878 5878 5879 5879 5880 5880 5880
5666 5669 5672 5676 5680 5683 5687 5690 5693 5696 5700 5703 5705 5708 5712 5716 5718 5720 5722 5725 5728 5732 5736 5740 5743 5746 5749 5752 5756 5761 5766 5770 5774 5778 5782 5786 5789 5793 5796 5800 5804 5807 5811 5813 5816 5819 5822 5825 5827 5829 5832 5834 5837 5839 5841 5842 5844 5847 5849 5852 5854 5856 5857 5859 5860 5861 5862 5864 5865 5866 5867 5868 5869 5870 5871 5872 5873 5874 5875 5875 5876 5876 5877 5878 5878 5879 5879 5879
5662 5666 5669 5673 5677 5681 5684 5687 5690 5694 5697 5699 5702 5706 5709 5713 5715 5717 5720 5723 5726 5731 5735 5739 5742 5745 5747 5750 5755 5760 5764 5769 5773 5776 5780 5783 5787 5791 5794 5798 5802 5805 5808 5811 5814 5816 5819 5822 5825 5828 5830 5833 5835 5837 5838 5840 5843 5846 5849 5851 5853 5854 5855 5857 5858 5859 5861 5862 5863 5864 5866 5867 5868 5868 5869 5870 5872 5873 5873 5874 5875 5875 5876 5876 5877 5877 5877 5878
5659 5663 5666 5670 5674 5678 5681 5684 5688 5691 5694 5696 5699 5703 5706 5710 5712 5714 5717 5720 5724 5728 5732 5736 5740 5743 5746 5750 5755 5759 5763 5767 5770 5774 5778 5781 5785 5788 5792 5796 5799 5803 5806 5808 5812 5814 5817 5820 5823 5825 5828 5830 5833 5836 5838 5841 5844 5846 5848 5849 5851 5852 5853 5855 5856 5858 5859 5860 5861 5862 5864 5865 5866 5867 5868 5869 5870 5871 5872 5873 5873 5874 5874 5875 5876 5876 5876 5876
5655 5659 5663 5667 5671 5674 5678 5681 5684 5687 5691 5694 5696 5699 5703 5707 5709 5712 5715 5719 5722 5726 5730 5736 5740 5744 5748 5751 5753 5756 5760 5764 5768 5772 5775 5779 5783 5786 5790 5793 5797 5800 5803 5806 5810 5813 5816 5818 5820 5823 5827 5830 5833 5836 5838 5841 5842 5843 5844 5846 5848 5849 5851 5853 5854 5856 5857 5858 5859 5861 5862 5863 5864 5865 5866 5867 5868 5869 5870 5871 5872 5872 5873 5873 5874 5874 5875 5875
5652 5656 5661 5664 5667 5671 5674 5678 5681 5684 5688 5691 5694 5697 5700 5704 5707 5710 5714 5718 5722 5726 5731 5736 5740 5743 5747 5749 5751 5754 5758 5762 5766 5769 5773 5776 5780 5784 5787 5791 5794 5797 5801 5804 5808 5811 5814 5817 5820 5825 5828 5831 5832 5834 5836 5837 5839 5840 5841 5843 5845 5847 5849 5850 5852 5853 5854 5856 5857 5858 5860 5861 5862 5863 5864 5865 5866 5868 5869 5869 5870 5870 5871 5871 5872 5872 5873 5873
5649 5653 5657 5661 5664 5667 5671 5674 5678 5681 5685 5688 5691 5695 5700 5704 5708 5711 5715 5718 5721 5725 5729 5733 5736 5739 5743 5746 5749 5752 5756 5760 5763 5766 5770 5774 5777 5781 5784 5788 5792 5795 5799 5802 5805 5808 5811 5815 5820 5824 5825 5826 5828 5830 5832 5834 5836 5837 5839 5841 5843 5845 5846 5848 5849 5850 5852 5853 5855 5856 5857 5859 5860 5860 5861 5862 5865 5867 5867 5867 5867 5868 5868 5869 5870 5870 5870 5871
5645 5650 5654 5658 5661 5664 5668 5671 5675 5679 5683 5686 5690 5694 5699 5703 5707 5710 5714 5716 5719 5722 5724 5728 5732 5736 5739 5743 5746 5750 5753 5757 5760 5764 5768 5771 5775 5778 5782 5786 5790 5793 5797 5800 5803 5805 5808 5813 5817 5818 5819 5821 5824 5826 5829 5831 5833 5835 5837 5839 5840 5842 5844 5845 5847 5848 5849 5850 5852 5853 5855 5857 5857 5857 5859 5860 5863 5864 5864 5864 5866 5866 5866 5867 5867 5868 5868 5868
5642 5646 5650 5654 5658 5661 5664 5668 5672 5677 5681 5685 5689 5692 5695 5699 5702 5705 5708 5711 5714 5718 5721 5724 5728 5732 5736 5740 5744 5747 5751 5755 5759 5762 5766 5770 5773 5776 5780 5784 5787 5790 5794 5798 5801 5804 5809 5812 5813 5814 5817 5819 5822 5825 5827 5829 5831 5833 5835 5836 5838 5840 5841 5842 5844 5845 5847 5848 5849 5850 5852 5854 5855 5855 5857 5858 5860 5862 5862 5862 5863 5863 5864 5864 5865 5865 5866 5866
5638 5643 5646 5651 5654 5658 5661 5665 5670 5675 5679 5683 5685 5688 5691 5695 5698 5701 5703 5705 5709 5713 5717 5720 5724 5728 5732 5736 5741 5745 5749 5753 5756 5760 5764 5768 5771 5775 5778 5781 5784 5788 5792 5795 5799 5803 5807 5809 5810 5812 5815 5818 5820 5823 5825 5827 5829 5831 5832 5834 5835 5837 5838 5840 5841 5842 5843 5844 5846 5847 5848 5851 5853 5853 5854 5855 5857 5859 5859 5860 5861 5861 5862 5862 5862 5863 5863 5863
5635 5639 5643 5647 5651 5655 5658 5663 5668 5672 5676 5679 5681 5684 5688 5691 5694 5697 5699 5701 5704 5707 5711 5715 5720 5725 5729 5733 5737 5741 5746 5750 5753 5757 5761 5764 5768 5772 5775 5778 5781 5785 5789 5792 5795 5798 5801 5803 5806 5809 5812 5814 5817 5820 5822 5824 5826 5827 5829 5831 5832 5834 5835 5836 5838 5839 5840 5841 5843 5844 5844 5847 5850 5851 5852 5853 5854 5855 5856 5857 5859 5859 5859 5860 5860 5860 5860 5860
5631 5636 5639 5643 5647 5652 5656 5661 5666 5668 5672 5675 5678 5681 5685 5688 5690 5693 5695 5696 5697 5701 5706 5712 5716 5720 5726 5731 5734 5738 5742 5746 5750 5754 5757 5760 5764 5768 5772 5775 5779 5783 5786 5788 5791 5793 5797 5800 5803 5805 5808 5811 5813 5816 5818 5820 5822 5824 5826 5828 5829 5830 5832 5833 5835 5836 5837 5838 5840 5841 5841 5843 5847 5849 5849 5850 5851 5852 5853 5855 5856 5857 5857 5857 5857 5857 5857 5858
5628 5632 5636 5640 5644 5649 5653 5659 5662 5665 5669 5672 5674 5678 5681 5684 5686 5689 5692 5691 5692 5698 5704 5708 5712 5718 5723 5728 5732 5736 5739 5743 5748 5751 5754 5758 5762 5765 5769 5773 5777 5780 5782 5784 5787 5791 5795 5798 5800 5802 5805 5808 5810 5813 5815 5817 5819 5821 5823 5824 5825 5827 5829 5830 5831 5832 5833 5835 5836 5837 5838 5839 5843 5847 5847 5847 5848 5849 5850 5852 5854 5854 5853 5854 5854 5855 5854 5855
5625 5629 5633 5637 5641 5646 5650 5655 5659 5663 5665 5667 5672 5675 5677 5679 5682 5686 5687 5685 5687 5694 5700 5704 5710 5715 5720 5724 5729 5733 5738 5743 5746 5748 5752 5756 5759 5763 5766 5770 5773 5776 5778 5782 5787 5790 5792 5795 5797 5800 5802 5805 5808 5810 5812 5814 5815 5817 5820 5821 5822 5823 5825 5826 5828 5829 5830 5831 5832 5834 5836 5834 5837 5843 5845 5844 5845 5846 5848 5850 5850 5851 5851 5851 5852 5851 5851 5851
5621 5625 5630 5633 5637 5642 5646 5651 5655 5657 5659 5663 5667 5670 5673 5675 5677 5679 5680 5678 5682 5691 5697 5701 5707 5711 5716 5721 5725 5730 5735 5739 5742 5746 5751 5753 5756 5760 5763 5767 5769 5771 5775 5779 5783 5786 5788 5791 5793 5796 5799 5802 5805 5806 5808 5810 5812 5814 5816 5817 5818 5819 5821 5822 5823 5825 5826 5827 5829 5831 5832 5831 5832 5838 5842 5842 5842 5844 5845 5846 5847 5847 5848 5848 5848 5848 5848 5848
5617 5622 5626 5629 5634 5639 5643 5648 5650 5651 5654 5659 5662 5665 5667 5669 5670 5671 5671 5673 5680 5687 5694 5699 5703 5708 5713 5717 5722 5727 5732 5736 5740 5743 5746 5749 5753 5757 5760 5762 5765 5767 5771 5775 5777 5780 5783 5786 5789 5792 5795 5798 5800 5802 5804 5806 5808 5810 5811 5813 5814 5815 5817 5818 5819 5822 5822 5823 5827 5828 5829 5829 5827 5831 5837 5839 5840 5841 5842 5843 5843 5844 5844 5845 5845 5845 5845 5845
5613 5618 5621 5626 5631 5636 5640 5643 5645 5647 5651 5653 5656 5659 5661 5662 5664 5663 5666 5674 5680 5685 5691 5696 5701 5706 5711 5716 5720 5724 5729 5733 5736 5739 5741 5745 5749 5752 5755 5757 5760 5763 5767 5770 5773 5777 5779 5782 5785 5788 5791 5793 5795 5797 5800 5802 5803 5805 5807 5809 5811 5811 5813 5814 5816 5817 5818 5820 5823 5824 5825 5826 5824 5826 5832 5836 5838 5838 5838 5839 5840 5841 5840 5841 5842 5842 5842 5841
5609 5614 5618 5622 5626 5632 5635 5637 5640 5643 5645 5647 5650 5653 5655 5656 5654 5657 5667 5675 5676 5680 5689 5695 5700 5705 5710 5715 5718 5722 5726 5729 5732 5735 5739 5742 5745 5748 5752 5755 5758 5761 5764 5767 5770 5773 5776 5778 5781 5784 5787 5789 5791 5793 5795 5797 5800 5801 5803 5805 5806 5807 5808 5810 5812 5813 5815 5817 5819 5820 5821 5821 5821 5824 5826 5830 5834 5835 5835 5836 5837 5837 5836 5837 5838 5838 5838 5837
5605 5610 5614 5617 5623 5627 5629 5631 5635 5638 5640 5642 5644 5647 5650 5648 5649 5659 5669 5671 5672 5680 5689 5694 5699 5704 5708 5710 5713 5717 5722 5726 5730 5732 5735 5738 5741 5745 5748 5751 5755 5759 5763 5767 5769 5771 5773 5775 5777 5781 5783 5786 5788 5789 5792 5795 5797 5798 5800 5801 5802 5804 5805 5807 5808 5810 5812 5814 5814 5816 5817 5817 5819 5821 5821 5825 5829 5831 5831 5832 5832 5832 5832 5833 5834 5834 5834 5833
5601 5605 5609 5613 5618 5621 5623 5627 5630 5633 5634 5635 5637 5641 5643 5642 5650 5662 5666 5667 5672 5681 5688 5692 5696 5700 5703 5706 5710 5714 5718 5721 5725 5728 5731 5734 5736 5739 5743 5747 5751 5755 5760 5763 5765 5768 5770 5773 5777 5779 5782 5784 5786 5787 5790 5792 5793 5794 5796 5798 5799 5800 5801 5803 5804 5806 5808 5809 5810 5811 5812 5813 5816 5817 5818 5821 5824 5826 5827 5827 5828 5828 5828 5829 5829 5830 5829 5829
5597 5601 5605 5609 5613 5616 5619 5622 5625 5628 5628 5630 5632 5635 5637 5642 5653 5659 5660 5665 5672 5677 5683 5688 5692 5695 5698 5702 5706 5710 5713 5717 5721 5724 5726 5730 5734 5738 5742 5745 5748 5752 5754 5757 5760 5763 5766 5770 5774 5777 5779 5781 5782 5783 5785 5786 5787 5789 5792 5793 5795 5796 5797 5799 5800 5802 5804 5804 5805 5807 5808 5810 5813 5814 5815 5818 5820 5821 5821 5822 5824 5824 5824 5824 5825 5825 5825 5824
5593 5597 5601 5604 5608 5612 5615 5618 5621 5623 5623 5625 5627 5629 5637 5646 5654 5657 5660 5666 5672 5675 5680 5683 5686 5689 5692 5696 5700 5703 5708 5713 5718 5720 5723 5727 5731 5735 5739 5743 5746 5749 5752 5755 5758 5761 5763 5766 5769 5771 5773 5775 5776 5778 5780 5781 5783 5785 5787 5789 5792 5793 5795 5796 5797 5799 5800 5799 5801 5803 5804 5807 5809 5810 5812 5814 5815 5816 5816 5818 5819 5819 5820 5821 5820 5820 5820 5820
5589 5593 5597 5600 5604 5607 5610 5614 5617 5619 5620 5621 5622 5630 5642 5648 5651 5654 5658 5663 5668 5670 5673 5677 5680 5683 5687 5691 5696 5700 5705 5709 5712 5716 5720 5723 5726 5730 5735 5739 5743 5747 5750 5753 5755 5758 5761 5763 5765 5767 5768 5770 5772 5773 5775 5777 5779 5781 5784 5787 5788 5789 5791 5792 5792 5793 5794 5794 5796 5799 5801 5804 5806 5807 5809 5810 5810 5811 5812 5813 5814 5815 5816 5817 5816 5816 5816 5815
5585 5589 5592 5595 5599 5602 5606 5609 5612 5615 5617 5617 5621 5632 5641 5643 5645 5649 5652 5656 5660 5662 5665 5671 5675 5680 5685 5689 5693 5698 5701 5704 5707 5711 5715 5718 5722 5728 5732 5736 5740 5743 5746 5749 5751 5753 5756 5758 5760 5762 5763 5765 5767 5768 5770 5772 5775 5777 5779 5781 5782 5783 5786 5787 5787 5788 5790 5790 5793 5796 5798 5800 5802 5804 5806 5806 5806 5807 5807 5808 5808 5810 5811 5811 5812 5812 5811 5811
5580 5583 5586 5590 5594 5598 5601 5603 5607 5611 5612 5614 5622 5631 5635 5637 5640 5644 5647 5651 5653 5656 5660 5666 5671 5677 5681 5686 5691 5694 5697 5701 5705 5708 5711 5714 5719 5724 5729 5733 5736 5739 5742 5744 5746 5748 5750 5752 5753 5756 5758 5759 5761 5762 5765 5768 5771 5772 5774 5776 5778 5780 5782 5783 5784 5785 5787 5788 5789 5791 5793 5796 5799 5802 5802 5802 5802 5802 5803 5803 5804 5804 5805 5806 5807 5807 5807 5807
5573 5577 5582 5586 5589 5592 5595 5599 5601 5603 5607 5615 5623 5627 5629 5631 5634 5638 5643 5646 5647 5650 5655 5661 5667 5672 5677 5682 5686 5689 5693 5697 5701 5705 5708 5713 5717 5721 5726 5729 5732 5735 5737 5739 5740 5743 5745 5747 5748 5751 5752 5753 5756 5759 5762 5765 5767 5769 5770 5773 5775 5777 5778 5779 5780 5781 5783 5784 5785 5786 5787 5792 5797 5798 5798 5798 5798 5798 5798 5799 5799 5799 5800 5800 5801 5801 5801 5802
5570 5574 5578 5581 5584 5586 5589 5592 5595 5599 5607 5616 5620 5620 5623 5626 5629 5634 5638 5640 5642 5646 5651 5657 5663 5668 5673 5677 5680 5684 5688 5692 5696 5701 5704 5709 5714 5718 5723 5727 5729 5731 5732 5732 5736 5738 5740 5742 5744 5745 5747 5751 5754 5757 5759 5760 5762 5764 5766 5768 5771 5772 5773 5774 5774 5776 5778 5779 5780 5781 5782 5787 5793 5795 5794 5795 5794 5794 5794 5794 5794 5794 5795 5795 5796 5796 5796 5797
5567 5570 5573 5576 5579 5581 5584 5587 5593 5599 5606 5611 5614 5615 5619 5623 5627 5630 5633 5635 5637 5641 5646 5651 5655 5661 5666 5671 5675 5679 5682 5687 5691 5695 5700 5706 5711 5715 5720 5723 5724 5726 5727 5729 5732 5734 5736 5738 5739 5740 5744 5747 5749 5750 5753 5754 5756 5758 5760 5763 5765 5766 5767 5768 5768 5771 5773 5774 5776 5777 5777 5783 5790 5791 5791 5791 5790 5789 5789 5789 5789 5790 5790 5791 5791 5791 5791 5791
5563 5566 5569 5572 5575 5576 5578 5583 5587 5592 5599 5606 5610 5612 5615 5618 5621 5624 5627 5630 5633 5636 5641 5645 5650 5655 5660 5665 5669 5672 5677 5682 5686 5691 5697 5702 5706 5710 5713 5715 5718 5720 5721 5723 5725 5729 5730 5731 5733 5735 5738 5740 5741 5744 5747 5748 5750 5752 5756 5759 5760 5760 5762 5762 5764 5766 5767 5769 5773 5774 5774 5780 5785 5787 5788 5787 5784 5783 5784 5784 5785 5785 5785 5786 5786 5786 5785 5785
5559 5563 5566 5568 5569 5569 5571 5576 5581 5587 5595 5602 5603 5604 5608 5611 5615 5618 5622 5626 5629 5633 5637 5641 5646 5650 5655 5660 5664 5668 5672 5675 5680 5686 5692 5695 5700 5704 5705 5708 5712 5713 5715 5719 5722 5724 5725 5724 5726 5729 5730 5732 5734 5736 5739 5742 5745 5749 5752 5754 5754 5755 5756 5757 5759 5761 5762 5767 5771 5769 5771 5777 5780 5782 5783 5782 5779 5778 5779 5780 5780 5780 5780 5780 5779 5779 5778 5778
5554 5558 5561 5562 5562 5562 5566 5573 5579 5584 5590 5592 5595 5598 5602 5605 5609 5614 5618 5621 5624 5628 5632 5637 5642 5646 5650 5654 5657 5661 5665 5669 5675 5680 5684 5688 5693 5696 5698 5702 5705 5708 5712 5715 5716 5716 5716 5716 5719 5721 5721 5724 5728 5731 5737 5742 5745 5746 5748 5749 5750 5751 5752 5754 5755 5755 5757 5764 5765 5764 5768 5774 5775 5776 5776 5776 5775 5774 5774 5774 5775 5775 5775 5774 5774 5774 5773 5772
5549 5552 5555 5556 5557 5559 5564 5569 5574 5577 5580 5583 5589 5594 5597 5601 5605 5609 5612 5615 5618 5623 5627 5632 5637 5640 5643 5646 5650 5654 5658 5664 5669 5672 5677 5683 5687 5690 5693 5695 5698 5702 5705 5706 5706 5707 5707 5707 5712 5714 5716 5721 5727 5732 5736 5739 5739 5741 5743 5745 5746 5746 5748 5748 5747 5748 5755 5759 5757 5759 5765 5769 5769 5770 5770 5771 5772 5770 5769 5769 5768 5768 5769 5769 5769 5769 5768 5768
5544 5547 5550 5552 5553 5556 5560 5564 5568 5572 5575 5579 5585 5590 5593 5597 5600 5603 5606 5609 5613 5617 5621 5625 5629 5632 5635 5641 5645 5649 5655 5661 5663 5667 5673 5678 5681 5684 5686 5688 5691 5695 5697 5697 5698 5699 5699 5701 5706 5710 5713 5719 5723 5725 5727 5729 5730 5733 5736 5737 5738 5739 5740 5739 5739 5745 5751 5749 5749 5757 5762 5762 5764 5765 5765 5766 5766 5765 5765 5764 5762 5761 5761 5763 5764 5764 5763 5762
5538 5542 5545 5547 5549 5551 5555 5560 5564 5568 5571 5574 5578 5583 5587 5590 5592 5596 5601 5605 5608 5612 5615 5618 5622 5626 5632 5638 5642 5645 5651 5654 5657 5662 5668 5673 5675 5677 5679 5682 5684 5687 5690 5690 5691 5693 5693 5696 5704 5707 5709 5715 5716 5716 5719 5721 5723 5726 5727 5728 5730 5730 5730 5731 5735 5741 5744 5741 5746 5755 5755 5756 5760 5760 5760 5762 5759 5759 5760 5758 5756 5755 5755 5755 5756 5757 5756 5755
5533 5536 5539 5541 5544 5548 5552 5556 5559 5562 5566 5570 5572 5576 5579 5582 5586 5593 5598 5600 5602 5606 5610 5613 5618 5624 5629 5634 5636 5639 5643 5647 5652 5659 5664 5668 5670 5672 5674 5676 5678 5681 5683 5684 5686 5687 5687 5692 5699 5701 5702 5707 5708 5708 5712 5715 5715 5718 5719 5720 5722 5722 5723 5726 5731 5737 5738 5737 5743 5747 5746 5751 5755 5753 5755 5757 5753 5752 5754 5753 5751 5750 5749 5749 5748 5749 5749 5748
5526 5529 5533 5536 5539 5543 5546 5549 5553 5557 5560 5563 5566 5570 5574 5578 5583 5588 5591 5593 5597 5601 5605 5610 5617 5621 5624 5627 5630 5633 5637 5644 5650 5656 5660 5662 5664 5667 5669 5671 5674 5677 5676 5677 5679 5680 5682 5687 5693 5694 5695 5698 5700 5703 5705 5706 5707 5709 5710 5712 5714 5715 5717 5722 5728 5733 5731 5731 5737 5738 5737 5745 5750 5748 5750 5752 5747 5745 5747 5747 5746 5744 5742 5742 5742 5742 5743 5742
5520 5523 5527 5530 5534 5538 5541 5543 5547 5550 5554 5557 5561 5567 5570 5574 5580 5583 5585 5588 5592 5596 5600 5607 5611 5613 5616 5619 5622 5628 5635 5640 5644 5649 5652 5654 5656 5660 5663 5664 5668 5669 5669 5671 5672 5673 5677 5681 5685 5687 5685 5689 5695 5697 5697 5698 5698 5696 5698 5703 5707 5711 5715 5720 5724 5726 5724 5726 5731 5729 5729 5740 5745 5741 5743 5744 5740 5738 5739 5739 5739 5738 5737 5736 5736 5738 5738 5736
5514 5517 5520 5524 5527 5531 5535 5538 5540 5543 5547 5553 5559 5563 5566 5571 5576 5577 5578 5582 5587 5591 5596 5600 5603 5604 5607 5611 5617 5626 5632 5635 5637 5640 5642 5644 5647 5651 5653 5655 5659 5661 5662 5665 5666 5668 5671 5674 5679 5680 5678 5683 5690 5689 5689 5690 5684 5680 5690 5702 5708 5710 5713 5714 5715 5717 5718 5720 5721 5720 5725 5735 5736 5731 5733 5734 5732 5730 5731 5731 5731 5730 5730 5730 5731 5733 5732 5731